Terminal Aerodrome Forecast
Issued by NWS Houston/Galveston TX

Home | Current Version | Previous Version | Text Only | Print | Product List | Glossary On
Versions: 1 2 3 4 5 6 7 8 9 10 11 12 13 14 15 16 17 18 19 20 21 22 23 24 25 26 27 28 29 30 31 32 33 34 35 36 37 38 39 40 41 42 43 44 45 46 47 48 49 50
000
FTUS44 KHGX 271458
TAFHOU
TAFHOU
TAF AMD
KHOU 271458Z 2715/2812 07009KT P6SM VCTS SCT040CB OVC120
      TEMPO 2715/2716 5SM TSRA BR BKN035CB
     FM271900 14010KT P6SM BKN035
     FM280200 13008KT P6SM SCT025
     FM280600 13006KT P6SM BKN025=

USA.gov is the U.S. government's official web portal to all federal, state and local government web resources and services.